• In Czech Republic
  • List of Countries
  • For 7 days
  • Water Temperature
  • Satellite Maps
  • Weather Map
  • Weather Widgets
  • user-avatar
    Login

    Hourly Weather Glenrothes

    Today, 21 October, Sunday

    Time Temperature Precipitation Wind Pressure Humidity
    00:00 +14°C° 0 mm 5 mps 757 mmHg 95%
    01:00 +14°C° 0 mm 5 mps 757 mmHg 95%
    02:00 +14°C° 0 mm 6 mps 756 mmHg 94%
    03:00 +14°C° 0 mm 6 mps 756 mmHg 94%
    04:00 +14°C° 0.1 mm 6 mps 755 mmHg 94%
    05:00 +14°C° 0.1 mm 6 mps 755 mmHg 93%
    06:00 +14°C° 0.1 mm 6 mps 755 mmHg 93%
    07:00 +14°C° 0.3 mm 6 mps 755 mmHg 91%
    08:00 +13°C° 0.3 mm 6 mps 756 mmHg 89%
    09:00 +13°C° 0.3 mm 6 mps 756 mmHg 87%
    10:00 +11°C° 0.2 mm 6 mps 757 mmHg 86%
    11:00 +10°C° 0.2 mm 6 mps 757 mmHg 86%
    12:00 +9°C° 0.2 mm 6 mps 758 mmHg 85%
    13:00 +9°C° 0 mm 6 mps 758 mmHg 81%
    14:00 +9°C° 0 mm 6 mps 759 mmHg 76%
    15:00 +10°C° 0 mm 7 mps 759 mmHg 72%
    16:00 +8°C° 0 mm 6 mps 760 mmHg 74%
    17:00 +7°C° 0 mm 6 mps 760 mmHg 75%
    18:00 +6°C° 0 mm 5 mps 761 mmHg 77%
    19:00 +6°C° 0 mm 5 mps 761 mmHg 77%
    20:00 +5°C° 0 mm 5 mps 762 mmHg 77%
    21:00 +5°C° 0 mm 5 mps 763 mmHg 77%
    22:00 +3°C° 0 mm 5 mps 763 mmHg 77%
    23:00 +3°C° 0 mm 5 mps 764 mmHg 77%

    Tomorrow, 22 October, Monday

    Time Temperature Precipitation Wind Pressure Humidity
    00:00 +3°C° 0 mm 5 mps 764 mmHg 76%
    01:00 +3°C° 0 mm 5 mps 764 mmHg 77%
    02:00 +3°C° 0 mm 5 mps 765 mmHg 78%
    03:00 +2°C° 0 mm 5 mps 765 mmHg 79%
    04:00 +3°C° 0 mm 5 mps 765 mmHg 80%
    05:00 +3°C° 0 mm 5 mps 766 mmHg 81%
    06:00 +3°C° 0 mm 5 mps 766 mmHg 83%
    07:00 +4°C° 0 mm 6 mps 766 mmHg 81%
    08:00 +5°C° 0 mm 6 mps 766 mmHg 80%
    09:00 +7°C° 0 mm 6 mps 766 mmHg 78%
    10:00 +6°C° 0 mm 7 mps 766 mmHg 76%
    11:00 +8°C° 0 mm 7 mps 766 mmHg 74%
    12:00 +9°C° 0 mm 8 mps 766 mmHg 72%
    13:00 +9°C° 0 mm 8 mps 766 mmHg 73%
    14:00 +8°C° 0 mm 9 mps 765 mmHg 74%
    15:00 +8°C° 0 mm 10 mps 765 mmHg 75%
    16:00 +8°C° 0 mm 10 mps 764 mmHg 76%
    17:00 +8°C° 0 mm 10 mps 764 mmHg 77%
    18:00 +8°C° 0 mm 11 mps 764 mmHg 78%
    19:00 +8°C° 0 mm 11 mps 763 mmHg 78%
    20:00 +8°C° 0 mm 10 mps 763 mmHg 78%
    21:00 +8°C° 0 mm 10 mps 763 mmHg 78%
    22:00 +8°C° 0 mm 11 mps 762 mmHg 78%
    23:00 +8°C° 0 mm 11 mps 762 mmHg 79%

    Day after tomorrow, 23 October, Tuesday

    Time Temperature Precipitation Wind Pressure Humidity
    00:00 +8°C° 0 mm 11 mps 762 mmHg 79%
    01:00 +8°C° 0 mm 11 mps 761 mmHg 79%
    02:00 +9°C° 0 mm 11 mps 761 mmHg 79%
    03:00 +9°C° 0 mm 11 mps 760 mmHg 79%
    04:00 +9°C° 0 mm 11 mps 760 mmHg 79%
    05:00 +9°C° 0 mm 11 mps 760 mmHg 79%
    06:00 +9°C° 0 mm 11 mps 759 mmHg 79%
    07:00 +9°C° 0 mm 11 mps 759 mmHg 80%
    08:00 +11°C° 0 mm 11 mps 759 mmHg 81%
    09:00 +11°C° 0 mm 10 mps 759 mmHg 82%
    10:00 +11°C° 0.1 mm 10 mps 759 mmHg 83%
    11:00 +12°C° 0.1 mm 10 mps 759 mmHg 84%
    12:00 +12°C° 0.1 mm 9 mps 759 mmHg 85%
    13:00 +12°C° 0 mm 9 mps 759 mmHg 85%
    14:00 +12°C° 0 mm 9 mps 759 mmHg 85%
    15:00 +13°C° 0 mm 8 mps 759 mmHg 84%
    16:00 +12°C° 0 mm 8 mps 759 mmHg 85%
    17:00 +12°C° 0 mm 8 mps 760 mmHg 86%
    18:00 +12°C° 0 mm 8 mps 760 mmHg 87%
    19:00 +12°C° 0 mm 8 mps 760 mmHg 87%
    20:00 +13°C° 0 mm 8 mps 760 mmHg 87%
    21:00 +13°C° 0 mm 8 mps 760 mmHg 86%
    22:00 +13°C° 0 mm 8 mps 760 mmHg 86%
    23:00 +13°C° 0 mm 8 mps 760 mmHg 85%

    24 October, Wednesday

    Time Temperature Precipitation Wind Pressure Humidity
    00:00 +13°C° 0 mm 8 mps 760 mmHg 85%
    01:00 +13°C° 0 mm 8 mps 760 mmHg 85%
    02:00 +14°C° 0 mm 7 mps 761 mmHg 85%
    03:00 +14°C° 0 mm 7 mps 761 mmHg 85%
    04:00 +12°C° 0 mm 7 mps 761 mmHg 86%
    05:00 +12°C° 0 mm 7 mps 761 mmHg 87%
    06:00 +11°C° 0 mm 7 mps 761 mmHg 88%
    07:00 +11°C° 0 mm 6 mps 761 mmHg 86%
    08:00 +11°C° 0 mm 6 mps 761 mmHg 85%
    09:00 +11°C° 0 mm 6 mps 761 mmHg 84%
    10:00 +11°C° 0 mm 6 mps 761 mmHg 81%
    11:00 +11°C° 0 mm 6 mps 761 mmHg 78%
    12:00 +13°C° 0 mm 6 mps 761 mmHg 74%
    13:00 +11°C° 0 mm 6 mps 761 mmHg 75%
    14:00 +11°C° 0 mm 7 mps 761 mmHg 75%
    15:00 +10°C° 0 mm 7 mps 760 mmHg 75%
    16:00 +9°C° 0 mm 6 mps 760 mmHg 78%
    17:00 +8°C° 0 mm 6 mps 760 mmHg 81%
    18:00 +8°C° 0 mm 6 mps 760 mmHg 84%
    19:00 +7°C° 0 mm 6 mps 760 mmHg 85%
    20:00 +7°C° 0 mm 5 mps 760 mmHg 86%
    21:00 +7°C° 0 mm 5 mps 760 mmHg 87%
    22:00 +7°C° 0 mm 5 mps 760 mmHg 87%
    23:00 +7°C° 0 mm 5 mps 759 mmHg 86%

    25 October, Thursday

    Time Temperature Precipitation Wind Pressure Humidity
    00:00 +7°C° 0 mm 6 mps 759 mmHg 86%
    01:00 +8°C° 0 mm 6 mps 759 mmHg 85%
    02:00 +8°C° 0 mm 6 mps 758 mmHg 85%
    03:00 +8°C° 0 mm 6 mps 758 mmHg 85%
    04:00 +8°C° 0 mm 5 mps 757 mmHg 85%
    05:00 +8°C° 0 mm 5 mps 757 mmHg 85%
    06:00 +8°C° 0 mm 5 mps 756 mmHg 85%
    07:00 +8°C° 0 mm 6 mps 756 mmHg 84%
    08:00 +8°C° 0 mm 6 mps 756 mmHg 83%
    09:00 +9°C° 0 mm 6 mps 755 mmHg 82%
    10:00 +9°C° 0 mm 6 mps 755 mmHg 79%
    11:00 +10°C° 0 mm 7 mps 754 mmHg 77%
    12:00 +10°C° 0 mm 7 mps 754 mmHg 74%
    13:00 +10°C° 0 mm 7 mps 753 mmHg 75%
    14:00 +10°C° 0 mm 7 mps 752 mmHg 76%
    15:00 +10°C° 0 mm 7 mps 752 mmHg 76%
    16:00 +9°C° 0 mm 7 mps 751 mmHg 79%
    17:00 +8°C° 0 mm 7 mps 750 mmHg 82%
    18:00 +8°C° 0 mm 7 mps 750 mmHg 86%
    19:00 +8°C° 0 mm 7 mps 749 mmHg 86%
    20:00 +8°C° 0 mm 7 mps 749 mmHg 87%
    21:00 +8°C° 0 mm 6 mps 748 mmHg 88%
    22:00 +7°C° 0.3 mm 6 mps 748 mmHg 87%
    23:00 +7°C° 0.3 mm 6 mps 748 mmHg 87%

    26 October, Friday

    Time Temperature Precipitation Wind Pressure Humidity
    00:00 +7°C° 0.3 mm 6 mps 748 mmHg 86%
    01:00 +5°C° 0.3 mm 6 mps 748 mmHg 86%
    02:00 +5°C° 0.3 mm 5 mps 748 mmHg 85%
    03:00 +3°C° 0.3 mm 5 mps 748 mmHg 85%
    04:00 +3°C° 0 mm 5 mps 748 mmHg 85%
    05:00 +2°C° 0 mm 5 mps 748 mmHg 86%
    06:00 +2°C° 0 mm 5 mps 748 mmHg 86%
    07:00 +2°C° 0 mm 5 mps 749 mmHg 84%
    08:00 +3°C° 0 mm 5 mps 749 mmHg 81%
    09:00 +3°C° 0 mm 6 mps 749 mmHg 79%
    10:00 +4°C° 0.1 mm 6 mps 750 mmHg 74%
    11:00 +5°C° 0.1 mm 7 mps 750 mmHg 69%
    12:00 +5°C° 0.1 mm 8 mps 750 mmHg 64%
    13:00 +5°C° 0.1 mm 7 mps 750 mmHg 64%
    14:00 +5°C° 0.1 mm 7 mps 750 mmHg 63%
    15:00 +4°C° 0.1 mm 7 mps 750 mmHg 62%
    16:00 +3°C° 0.1 mm 7 mps 751 mmHg 64%
    17:00 +2°C° 0.1 mm 7 mps 751 mmHg 67%
    18:00 +1°C° 0.1 mm 6 mps 751 mmHg 70%
    19:00 0°C° 0 mm 7 mps 751 mmHg 70%
    20:00 0°C° 0 mm 7 mps 751 mmHg 71%
    21:00 0°C° 0 mm 7 mps 751 mmHg 72%
    22:00 0°C° 0 mm 7 mps 750 mmHg 73%
    23:00 +1°C° 0 mm 6 mps 750 mmHg 73%
    Show more